www.pogodaiklimat.ru

Погода и климат >> Архив погоды >> Швейцария >> Payerne


ПОГОДА в Payerne

  • Прогноз погоды в Payerne
  • Монитор погоды в Payerne
  • Климат города

АРХИВ ПОГОДЫ в Payerne

Время (UTC), дата Ветер
(напр.,м/с)
 
Видим.   Явления Облачность Т
(С)
Тd
(С)
f
(%)
Тe
(С)
Тes
(С)
Комфортность P
(гПа)
Po
(гПа)
Тmin
(С)
Tmax
(С)
R
(мм)
R24
(мм)
S
(см)
07 11.08 штиль 0
{2}
н/о н/о +12.1 +10.8 92 +11 +11 1017.9 960.4 0.1
08 11.08 З 1
{1}
н/о н/о +12.6 +11.1 91 +13 +13 1018.4 960.9 0.2
09 11.08 С 1
{2}
5000 м слабый дождь 10/10 360 м
[Frnb]
+12.7 +10.4 86 +14 +14 1018.8 961.3 0.1
11 11.08 Ю 2
{3}
н/о н/о +14.0 +9.5 74 +14 +14 1019.0 961.8
10 11.08 штиль 0
{2}
н/о н/о +13.4 +8.4 72 +13 +13 1018.9 961.6 0.1
12 11.08 Ю 2
{3}
17 км {дождь} 10/10 900 м
[Frnb]
+14.4 +9.9 74 +14 +14 1018.9 961.8
13 11.08 Ю 2
{4}
н/о н/о +14.9 +9.5 70 +15 +15 1018.9 961.9
14 11.08 З 2
{4}
н/о н/о +15.4 +8.0 61 +15 +15 1018.7 961.8
15 11.08 СВ 2
{6}
н/о н/о +13.7 +10.0 78 +13 +13 1019.5 962.2
17 11.08 Ю 2
{3}
н/о н/о +12.8 +10.6 86 +12 +12 1020.3 962.8 0.2
16 11.08 ЮЗ 1
{9}
н/о н/о +13.2 +10.4 83 +13 +13 1020.0 962.6 0.8
18 11.08 Ю 2 20 км в посл. час ливневой дождь 10/10 500 м
[Cu Sc]
+12.8 +11.7 93 +12 +12 1020.5 963.0 +15.6
19 11.08 ЮЗ 2
{3}
н/о н/о +12.6 +11.4 92 +12 +12 1021.4 963.8 0.7
20 11.08 ЮЗ 3
{6}
н/о н/о +12.3 +10.7 90 +11 +11 1021.5 963.8 0.1
21 11.08 ЮЗ 2 20 км в посл. час ливневой дождь 10/4 500 м
[Cu Sc As op]
+12.2 +11.0 92 +11 +11 1021.9 964.2
23 11.08 ЮЗ 2
{4}
н/о н/о +11.8 +10.4 91 +11 +11 1022.1 964.3
22 11.08 ЮЗ 2
{4}
н/о н/о +11.9 +10.5 91 +11 +11 1022.2 964.4
00 12.08 ЮЗ 2
{6}
20 км {ливн. осадки} 10/3 600 м
[Cu Sc Ac As]
+11.8 +10.4 91 +11 +11 1021.9 964.1
01 12.08 ЮЗ 2
{4}
н/о н/о +11.8 +10.5 92 +11 +11 1021.9 964.1
02 12.08 ЮЗ 2
{4}
н/о н/о +11.9 +10.4 91 +11 +11 1021.9 964.1
03 12.08 ЮЗ 3
{5}
н/о н/о +11.9 +10.3 90 +10 +10 1021.7 963.9
05 12.08 Ю 2
{4}
н/о н/о +12.0 +9.8 86 +11 +11 1021.6 963.8
04 12.08 ЮЗ 3
{4}
н/о н/о +12.0 +10.1 88 +11 +11 1021.6 963.8
06 12.08 ЮЗ 3 15 км 9/4 300 м
[Cu Sc Ac trans Ci sp]
+13.1 +10.5 84 +12 +12 1021.7 964.2 +11.7
07 12.08 ЮЗ 2
{5}
н/о н/о +12.9 +10.2 84 +12 +12 1022.4 964.8
08 12.08 ЮЗ 2
{4}
н/о н/о +13.9 +11.1 83 +14 +14 1022.5 965.1
09 12.08 ЮЗ 4
{6}
23 км 4/1 1110 м
[Cu Sc Ac trans]
+16.7 +10.6 67 +16 +22 1021.8 965.0
11 12.08 ЮЗ 3
{6}
н/о н/о +20.0 +8.6 48 +21 +21 комфорт 1020.7 964.6
10 12.08 ЮЗ 4
{5}
н/о н/о +18.5 +10.0 58 +19 +19 1021.2 964.8
12 12.08 З 3
{6}
23 км 8/4 1320 м
[Cu med, cong Ac trans Ci sp]
+20.3 +10.2 52 +22 +28 комфорт 1020.5 964.5
13 12.08 З 2
{6}
н/о н/о +20.7 +9.9 50 +23 +23 комфорт 1020.6 964.6
14 12.08 З 4
{5}
н/о н/о +20.7 +9.0 47 +22 +22 комфорт 1020.3 964.3
15 12.08 СЗ 4
{6}
н/о н/о +21.1 +9.6 48 +22 +22 комфорт 1019.9 964.0
17 12.08 З 2
{5}
н/о н/о +20.4 +8.8 47 +22 +22 комфорт 1019.9 963.9
16 12.08 З 3
{5}
н/о н/о +21.5 +9.5 46 +23 +23 комфорт 1019.8 964.0
18 12.08 СЗ 1 28 км 9/9 1410 м
[Sc]
+19.9 +9.5 51 +22 +22 комфорт 1020.2 964.1 +22.3
19 12.08 В 1
{2}
н/о н/о +18.4 +11.5 64 +20 +20 1020.7 964.3
20 12.08 В 1
{2}
н/о н/о +16.3 +12.2 77 +17 +17 1021.5 964.6
21 12.08 Ю 1
{2}
20 км 4/0
[Ac trans]
+14.8 +12.4 86 +15 +15 1021.8 964.6
23 12.08 ЮЗ 1
{2}
н/о н/о +13.4 +11.9 91 +14 +14 1022.2 964.7
22 12.08 ЮЗ 1
{2}
н/о н/о +14.7 +11.6 82 +16 +16 1021.9 964.7
00 13.08 Ю 1
{3}
20 км 4/0
[Ac trans]
+13.3 +11.4 88 +13 +13 1022.0 964.5
01 13.08 Ю 2
{3}
н/о н/о +12.4 +10.6 89 +12 +12 1022.0 964.3
02 13.08 ЮЗ 2
{3}
н/о н/о +13.2 +11.5 89 +13 +13 1021.7 964.2
03 13.08 ЮЗ 1
{3}
н/о н/о +13.0 +11.7 92 +14 +14 1021.7 964.1
05 13.08 штиль 0
{3}
н/о н/о +11.5 +10.7 95 +11 +11 1022.0 964.1
04 13.08 ЮЗ 2
{2}
н/о н/о +12.3 +11.1 92 +12 +12 1021.7 964.0
06 13.08 штиль 0 20 км 4/1 1000 м
[Sc Ac trans Ci fib]
+13.9 +11.7 87 +13 +15 1021.7 964.3 +11.5
07 13.08 З 1
{2}
н/о н/о +15.9 +11.3 74 +17 +17 1021.7 964.7
08 13.08 штиль 0
{1}
н/о н/о +17.3 +11.5 69 +17 +17 1021.4 964.7
09 13.08 С 2
{3}
25 км 5/1 1110 м
[Cu Sc Ac trans Ci fib]
+19.4 +11.1 59 +21 +30 комфорт 1020.7 964.5
11 13.08 В 2
{7}
н/о н/о +21.3 +11.1 52 +23 +23 комфорт 1019.7 963.9
10 13.08 СЗ 2
{3}
н/о н/о +20.0 +11.4 58 +22 +22 комфорт 1020.5 964.4
12 13.08 СВ 2
{7}
28 км 3/3 1320 м
[Cu Sc Ci sp]
+22.5 +12.0 51 +25 +37 комфорт 1019.0 963.5
13 13.08 СВ 2
{5}
н/о н/о +23.6 +12.5 50 +26 +26 жарко 1018.3 963.0
14 13.08 СВ 2
{4}
н/о н/о +23.8 +12.2 48 +26 +26 жарко 1017.9 962.7
15 13.08 СВ 3
{5}
н/о н/о +24.0 +12.2 48 +26 +26 жарко 1017.7 962.5
17 13.08 СВ 1
{4}
н/о н/о +23.8 +12.1 48 +26 +26 жарко 1017.5 962.3
16 13.08 В 1
{4}
н/о н/о +24.4 +12.9 49 +26 +26 жарко 1017.5 962.4
18 13.08 С 2 30 км 3/3 1410 м
[Cu Sc Ci sp]
+22.9 +13.4 55 +26 +26 жарко 1017.8 962.4 +24.6
19 13.08 В 1
{3}
н/о н/о +20.1 +14.4 70 +24 +24 комфорт 1018.6 962.6
20 13.08 штиль 0
{1}
н/о н/о +18.4 +14.3 77 +19 +19 1019.2 962.9
21 13.08 штиль 0
{3}
18 км 3/0
[Ac trans]
+16.8 +14.7 87 +17 +17 1019.6 962.9
23 13.08 штиль 0
{2}
н/о н/о +15.0 +13.7 92 +15 +15 1019.9 962.8
22 13.08 ЮЗ 1
{1}
н/о н/о +16.1 +14.0 87 +17 +17 1019.8 963.0
00 14.08 Ю 1
{3}
20 км ясно +14.6 +13.2 91 +16 +16 1019.8 962.7
01 14.08 Ю 1
{2}
н/о н/о +14.0 +12.9 93 +14 +14 1019.9 962.6
02 14.08 штиль 0
{2}
н/о н/о +13.6 +12.8 95 +13 +13 1020.0 962.7
03 14.08 ЮЗ 1
{2}
н/о н/о +12.8 +12.0 95 +14 +14 1020.2 962.7
05 14.08 ЮЗ 2
{3}
н/о н/о +13.1 +12.3 95 +12 +12 1020.4 962.9
04 14.08 ЮЗ 1
{2}
н/о н/о +12.5 +11.8 95 +12 +12 1020.4 962.8
06 14.08 ЮЗ 1 22 км 1/1 600 м
[Cu hum Ac trans Ci fib]
+14.8 +13.3 91 +16 +18 1020.3 963.2 +12.5
07 14.08 штиль 0
{2}
н/о н/о +17.8 +14.6 82 +18 +18 1019.8 963.3
08 14.08 СЗ 1
{2}
н/о н/о +19.0 +14.7 76 +22 +22 комфорт 1019.5 963.3
09 14.08 С 2
{2}
25 км 1/1 1020 м
[Cu hum Ci fib]
+20.7 +14.9 69 +24 +35 комфорт 1019.1 963.2
11 14.08 Ю 1
{3}
н/о н/о +23.6 +15.9 62 +27 +27 жарко 1018.1 962.8
10 14.08 СВ 1
{3}
н/о н/о +21.9 +15.4 67 +26 +26 душно 1018.7 963.1
12 14.08 С 2
{4}
28 км 3/1 1110 м
[Cu med, cong Ac trans Ci fib]
+25.6 +16.1 56 +29 +42 душно 1017.1 962.3
13 14.08 З 1
{6}
н/о н/о +26.5 +15.0 49 +29 +29 жарко 1016.3 961.7
14 14.08 З 4
{7}
н/о н/о +27.7 +13.0 40 +29 +29 жарко 1015.5 961.1
15 14.08 ЮЗ 3
{8}
н/о н/о +28.2 +13.3 40 +30 +30 жарко 1015.0 960.8
17 14.08 ЮЗ 3
{8}
н/о н/о +27.3 +13.5 43 +29 +29 жарко 1014.9 960.5
16 14.08 ЮЗ 4
{7}
н/о н/о +28.0 +12.1 37 +29 +29 жарко 1015.0 960.7
18 14.08 ЮЗ 2 16 км 1/1 1110 м
[Cu med, cong Ac cuf]
+25.9 +13.2 45 +28 +28 жарко 1015.2 960.5 +28.5
19 14.08 штиль 0
{2}
н/о н/о +22.3 +15.1 64 +26 +26 жарко 1016.3 960.9
20 14.08 Ю 1
{2}
н/о н/о +20.2 +15.3 73 +24 +24 комфорт 1017.5 961.6
21 14.08 Ю 1
{2}
24 км 1/1 1110 м
[Cu med, cong Ac trans]
+17.8 +14.7 82 +19 +19 1018.4 962.0
23 14.08 ЮЗ 2
{2}
н/о н/о +16.5 +14.5 88 +17 +17 1018.9 962.2
22 14.08 В 1
{3}
н/о н/о +17.9 +14.6 81 +20 +20 1018.5 962.1
00 15.08 Ю 2
{4}
22 км 1/1 1110 м
[Sc Ac trans]
+16.8 +14.4 86 +17 +17 1018.7 962.1
01 15.08 ЮВ 1
{4}
н/о н/о +15.7 +14.2 91 +16 +16 1019.1 962.2
02 15.08 ЮЗ 2
{3}
н/о н/о +16.1 +14.2 88 +16 +16 1019.3 962.5
03 15.08 штиль 0
{4}
н/о н/о +15.7 +13.8 88 +15 +15 1019.5 962.6
05 15.08 штиль 0
{1}
н/о н/о +14.5 +13.4 93 +14 +14 1019.9 962.7
04 15.08 Ю 1
{2}
н/о н/о +14.8 +13.7 93 +16 +16 1019.7 962.6
06 15.08 СВ 1 18 км 8/1 2000 м
[Sc Ci sp]
+16.2 +13.9 86 +18 +19 1019.9 963.1 +14.5
07 15.08 штиль 0
{1}
н/о н/о +19.2 +14.0 72 +20 +20 1019.3 963.1
08 15.08 ЮЗ 1
{2}
н/о н/о +22.1 +15.5 66 +26 +26 душно 1018.7 963.1
09 15.08 СЗ 1
{3}
30 км 1/0
[Ac trans Ci fib]
+24.4 +14.8 55 +27 +39 жарко 1018.0 962.9
11 15.08 ЮЗ 5
{9}
н/о н/о +28.4 +11.2 34 +29 +29 жарко 1016.8 962.5
10 15.08 З 1
{3}
н/о н/о +25.8 +15.9 54 +29 +29 душно 1017.6 962.8
12 15.08 ЮЗ 3
{9}
28 км 5/1 1500 м
[Cu hum Ac trans Ci sp]
+28.1 +11.2 35 +29 +38 жарко 1016.6 962.3
13 15.08 ЮЗ 2
{5}
н/о н/о +28.4 +12.8 38 +30 +30 жарко 1016.5 962.2
14 15.08 ЮЗ 1
{6}
н/о н/о +26.4 +14.0 46 +29 +29 жарко 1016.7 962.0
15 15.08 Ю 2
{6}
н/о н/о +25.3 +16.2 57 +29 +29 душно 1017.4 962.5 0.3
17 15.08 СВ 1
{3}
н/о н/о +25.5 +14.3 50 +28 +28 жарко 1016.8 962.0
16 15.08 В 2
{3}
н/о н/о +27.0 +13.3 43 +29 +29 жарко 1016.9 962.3
18 15.08 ЮЗ 2 19 км 5/1 1500 м
[Cu med, cong Ac As Ci fib]
+21.8 +16.0 70 +26 +26 душно 1017.8 962.2 +29.4
19 15.08 В 1
{2}
н/о н/о +20.3 +16.4 78 +24 +24 комфорт 1018.6 962.7
20 15.08 З 2
{4}
н/о н/о +20.9 +15.9 73 +25 +25 комфорт 1019.9 964.0
21 15.08 ЮЗ 2
{4}
8000 м слабый дождь 10/10 1500 м
[Frnb]
+20.1 +15.9 77 +24 +24 комфорт 1020.8 964.7 0.5
23 15.08 Ю 2
{3}
н/о н/о +17.9 +15.6 86 +19 +19 1021.2 964.6 0.5
22 15.08 Ю 2
{4}
н/о н/о +19.2 +14.8 76 +21 +21 комфорт 1020.8 964.5
00 16.08 Ю 2
{4}
19 км {дождь} 10/5 1500 м
[St As op]
+17.4 +15.7 90 +18 +18 1021.3 964.6
01 16.08 ЮЗ 1
{2}
н/о н/о +17.3 +16.0 92 +18 +18 1021.4 964.7
02 16.08 ЮВ 1
{3}
н/о н/о +16.6 +15.3 92 +18 +18 1021.6 964.8
03 16.08 СЗ 1
{3}
н/о н/о +15.9 +14.8 93 +17 +17 1021.8 964.8
05 16.08 штиль 0
{1}
н/о н/о +16.1 +15.2 94 +16 +16 1022.1 965.1
04 16.08 штиль 0
{1}
н/о н/о +16.1 +15.0 93 +16 +16 1021.7 964.8
06 16.08 штиль 0 11 км дымка 8/8 300 м
[Sc]
+16.7 +15.4 92 +17 +17 1022.1 965.3 +15.8
07 16.08 штиль 0
{2}
н/о н/о +17.5 +16.2 92 +17 +17 1022.2 965.5
08 16.08 СЗ 1
{2}
н/о н/о +19.5 +16.8 84 +23 +23 комфорт 1021.2 965.0
09 16.08 СЗ 2 17 км 8/4 1020 м
[Cu Sc Ci fib]
+21.3 +15.9 71 +25 +31 комфорт 1020.9 965.0
11 16.08 СВ 1
{3}
н/о н/о +24.0 +16.3 62 +27 +27 жарко 1019.2 963.9
10 16.08 С 1
{3}
н/о н/о +22.5 +15.9 66 +27 +27 душно 1020.2 964.6
12 16.08 В 2
{3}
20 км 9/3 1410 м
[Cu med, cong Cs]
+24.9 +14.5 52 +27 +37 жарко 1018.4 963.4
13 16.08 СВ 2
{3}
н/о н/о +27.1 +15.0 48 +30 +30 душно 1017.8 963.2
14 16.08 В 1
{2}
н/о н/о +27.3 +14.2 45 +30 +30 душно 1017.2 962.7
15 16.08 С 1
{3}
н/о н/о +26.1 +15.9 53 +29 +29 жарко 1017.4 962.6
17 16.08 СВ 2
{4}
н/о н/о +25.4 +15.1 53 +28 +28 жарко 1017.4 962.5
16 16.08 С 2
{3}
н/о н/о +27.0 +16.3 52 +30 +30 душно 1017.2 962.6
18 16.08 В 1 19 км 9/1 1110 м
[Sc Ac As]
+23.7 +17.4 68 +28 +28 душно 1017.9 962.7 +27.3
19 16.08 З 1
{2}
н/о н/о +22.8 +17.0 70 +28 +28 душно 1018.3 962.9
20 16.08 СВ 1
{3}
н/о н/о +21.6 +17.1 76 +26 +26 душно 1018.8 963.1
21 16.08 ЮЗ 1
{3}
19 км 9/1 1320 м
[Sc Ac As]
+20.1 +17.0 82 +24 +24 комфорт 1019.6 963.6
23 16.08 Ю 2
{3}
н/о н/о +17.9 +16.4 91 +19 +19 1020.1 963.6
22 16.08 ЮЗ 2
{3}
н/о н/о +19.4 +15.5 78 +22 +22 комфорт 1019.9 963.7
00 17.08 ЮЗ 1
{3}
19 км 6/3 1500 м
[Sc Ac As Ci fib]
+17.3 +15.9 91 +18 +18 1019.9 963.3
01 17.08 ЮЗ 2
{3}
н/о н/о +17.0 +15.2 89 +17 +17 1019.9 963.2
02 17.08 ЮЗ 2
{3}
н/о н/о +16.2 +15.1 93 +16 +16 1019.9 963.1
03 17.08 Ю 2
{3}
н/о н/о +16.1 +15.0 93 +16 +16 1019.7 962.9
05 17.08 Ю 2
{3}
н/о н/о +15.8 +14.6 93 +16 +16 1020.5 963.6
04 17.08 штиль 0
{4}
н/о н/о +15.8 +14.6 93 +16 +16 1019.9 963.0
06 17.08 Ю 1 14 км дымка 9/6 300 м
[Sc Ci fib]
+17.2 +15.6 90 +18 +19 1020.0 963.4 +15.3
07 17.08 Ю 1
{3}
н/о н/о +19.4 +15.5 78 +23 +23 комфорт 1019.9 963.7
08 17.08 СЗ 1
{2}
н/о н/о +21.4 +16.4 73 +25 +25 комфорт 1019.5 963.7
09 17.08 СВ 1
{3}
17 км 6/3 1020 м
[Cu Sc Ci fib]
+22.7 +17.3 72 +28 +36 душно 1019.3 963.8
11 17.08 С 1
{3}
н/о н/о +25.8 +16.4 56 +29 +29 душно 1017.8 963.0
10 17.08 Ю 2
{3}
н/о н/о +25.1 +16.4 59 +29 +29 душно 1018.3 963.3
12 17.08 ЮЗ 2
{4}
24 км 5/5 1410 м
[Cu Sc Ci fib]
+27.0 +15.8 50 +30 +38 душно 1017.2 962.6
13 17.08 С 2
{5}
н/о н/о +27.1 +16.2 51 +30 +30 душно 1016.6 962.1
14 17.08 СЗ 2
{5}
н/о н/о +27.9 +16.5 50 +31 +31 душно 1016.2 961.8
15 17.08 СЗ 3
{6}
н/о н/о +28.9 +16.3 46 +32 +32 душно 1015.8 961.7
17 17.08 СЗ 1
{3}
н/о н/о +27.6 +15.9 49 +31 +31 душно 1016.4 962.0
16 17.08 СЗ 3
{6}
н/о н/о +27.7 +15.9 49 +31 +31 душно 1016.2 961.8
18 17.08 СЗ 2 18 км 6/1 1500 м
[Cu med, cong Ac lent Ci fib]
+26.5 +15.1 50 +29 +29 жарко 1016.6 962.0 +28.9
19 17.08 штиль 0
{4}
н/о н/о +22.0 +16.7 72 +26 +26 душно 1017.3 961.8
20 17.08 штиль 0 н/о н/о +19.9 +17.2 84 +22 +22 комфорт 1018.0 962.0
21 17.08 ЮЗ 2
{4}
20 км 1/0
[Ci fib]
+19.0 +15.9 82 +21 +21 комфорт 1018.0 961.8
23 17.08 Ю 1
{2}
н/о н/о +17.8 +16.1 90 +19 +19 1018.6 962.2
22 17.08 З 1
{3}
н/о н/о +19.3 +16.1 82 +22 +22 комфорт 1018.1 962.0
00 18.08 ЮЗ 1
{4}
19 км 5/1 1320 м
[Cu hum Ac lent Ci fib]
+17.3 +15.7 90 +18 +18 1018.5 962.0
01 18.08 штиль 0
{3}
н/о н/о +16.6 +15.3 92 +16 +16 1018.6 961.9
02 18.08 ЮВ 1
{2}
н/о н/о +16.1 +15.0 93 +17 +17 1018.2 961.5
03 18.08 Ю 1
{3}
н/о н/о +15.9 +15.0 94 +17 +17 1018.3 961.5
05 18.08 штиль 0
{2}
н/о н/о +16.1 +14.9 93 +16 +16 1018.1 961.4
04 18.08 ЮЗ 1
{2}
н/о н/о +16.0 +14.8 93 +17 +17 1018.3 961.5

 

Местоположение метеостанции Payerne (Швейцария): широта 46.82 долгота 6.95 высота над уровнем моря 491 м.

В архиве по умолчанию представлена погода в Payerne за последнюю неделю. Архивные данные за месяц целиком и за предыдущие месяцы, начиная с января 2011 года, Вы можете получить, выбрав интересующий диапазон дат из раскрывающегося списка и нажав кнопку "Ввод!".

Внимание! Время в таблицах - всемирное. Для получения местного времени необходимо прибавить поправку, которая в Payerne равна 1 ч.

Смотрите также архив погоды в соседних городах и на ближайших метеорологических станциях:

Погода в Neuchatel (Швейцария) (20 км)
Погода в Fribourg Posieux (Швейцария) (21 км)
Погода в Plaffeien-Oberschro (Швейцария) (26 км)
Погода в Cressier (Швейцария) (27 км)
Погода в Fretaz La (Швейцария) (28 км)
Погода в Oron (Швейцария) (28 км)
Погода в Mathod (Швейцария) (29 км)
Погода в Moleson (Швейцария) (31 км)
Погода в La Brevine (Швейцария) (31 км)
Погода в Muehleberg (Швейцария) (31 км)

Пояснения к столбцам:

Ветер - указаны скорость ветра в м/с - средняя за 10 мин, порывы в срок и между сроками (в фигурных скобках) и направление, откуда дует ветер: С - северный, СВ - северо-восточный, В - восточный, ЮВ - юго-восточный, Ю - южный, ЮЗ - юго-западный, З - западный, СЗ - северо-западный.
Видимость - горизонтальная дальность видимости в метрах или километрах. При видимости от 1 до 10 км при отсутствии осадков обычно наблюдается дымка, при ухудшении видимости до 1 км и менее - туман. В сухую погоду видимость может ухудшаться дымом, пылью или мглою.
Явления - указаны атмосферные явления, наблюдавшиеся в срок или в последний час перед сроком; фигурными скобками обозначены явления, наблюдавшиеся между сроками (за 1-3 часа до срока); квадратными скобками обозначены град или гололедные отложения с указанием их диаметра в мм.
Облачность - указаны через наклонную черту общая и нижняя облачность в баллах и высота нижней границы облаков в метрах; квадратными скобками обозначены формы облаков: Ci - перистые, Cs - перисто-слоистые, Cc - перисто-кучевые, Ac - высококучевые, As - высокослоистые, Sc - слоисто-кучевые, Ns - слоисто-дождевые, Cu - кучевые, Cb - кучево-дождевые. Подробнее классификацию облаков см. в Атласе облаков (PDF).
T - Температура воздуха - температура, измеренная на высоте 2 м над землей.
Td - Температура точки росы - температура, при понижении до которой содержащийся в воздухе водяной пар достигнет насыщения.
f - Относительная влажность воздуха - влажноcть воздуха, измеренная на высоте 2 м над землей.
Te - Эффективная температура - температура, которую ощущает одетый по сезону человек в тени. Характеристика душности погоды. При расчете учитывается влияние влажности воздуха и скорости ветра на теплоощущения человека.
Tes - Эффективная температура на солнце - температура, которую ощущает человек, с поправкой на солнечный нагрев. Характеристика знойности погоды. Зависит от высоты солнца над горизонтом, облачности и скорости ветра. Ночью, в пасмурную погоду, а также при ветре 12 м/с и более поправка равна нулю.
P - Атмосферное давление - приведенное к уровню моря атмосферное давление.
Po - Атмосферное давление - измеренное на уровне метеостанции атмосферное давление.
Tmin - Минимальная температура - минимум температуры воздуха на высоте 2 м над землей.
Tmax - Максимальная температура - максимум температуры воздуха на высоте 2 м над землей.
R - Количество осадков - Количество выпавших осадков за период времени, мм. При наведении курсора мыши на число - период времени, за который выпало указанное количество осадков.
R24 - Количество осадков - Количество выпавших осадков за 24 часа, мм.
S - Снежный покров - Высота снежного покрова, см. При наведении курсора мыши на число - состояние снежного покрова и степень покрытия местности в баллах.